Orangeburg, SC

4:16 PM EDT on April 21, 2018 (GMT -0400)
Orangeburg Municipal

Weather History for KOGB - October, 2013

Change the Weather History Date:

Thursday, October 10, 2013

  Actual Average Record
Temperature  
Mean Temperature 67 °F 67 °F  
Max Temperature 79 °F 78 °F 90 °F (1958)
Min Temperature 55 °F 56 °F 35 °F (2000)
Degree Days  
Heating Degree Days 0 2  
Month to date heating degree days 0 11  
Since 1 July heating degree days 0 15  
Cooling Degree Days 2 4  
Month to date cooling degree days 67 49  
Year to date cooling degree days 1973 2043  
Growing Degree Days 16 (Base 50)    
Moisture  
Dew Point 52 °F    
Average Humidity 63    
Maximum Humidity 87    
Minimum Humidity 35    
Precipitation  
Precipitation 0.00 in 0.14 in 9.99 in (1990)
Month to date precipitation 0.11 1.44  
Year to date precipitation 49.02 38.54  
Sea Level Pressure  
Sea Level Pressure 30.03 in    
Wind  
Wind Speed 5 mph (NNW)    
Max Wind Speed 16 mph    
Max Gust Speed 22 mph    
Visibility 10 miles    
Events      
T = Trace of Precipitation, MM = Missing Value Source: NWS Daily Summary

Daily Weather History Graph

Daily Weather History Graph

Search for Another Location

Airport or City:

Astronomy

Oct. 10, 2013 Rise Set
Actual Time 7:24 AM EDT 6:55 PM EDT
Civil Twilight 6:59 AM EDT 7:20 PM EDT
Nautical Twilight 6:30 AM EDT 7:49 PM EDT
Astronomical Twilight 6:01 AM EDT 8:18 PM EDT
Moon 1:03 PM EDT (10/10) 11:42 PM EDT (10/10)
Length of Visible Light 12h 21m
Length of Day
11h 31m
Waxing Crescent, 35% of the Moon is Illuminated
Oct 10
Waxing Crescent
Oct 11
First Quarter
Oct 18
Full
Oct 26
Last Quarter
Nov 3
New

Hourly Weather History & Observations

Time (EDT) Temp. Dew Point Humidity Pressure Visibility Wind Dir Wind Speed Gust Speed Precip Events Conditions
12:53 AM 63.0 °F 52.0 °F 67% 30.08 in 10.0 mi North 6.9 mph - N/A   Clear
1:53 AM 61.0 °F 52.0 °F 72% 30.08 in 10.0 mi North 5.8 mph - N/A   Clear
2:53 AM 61.0 °F 52.0 °F 72% 30.06 in 10.0 mi North 4.6 mph - N/A   Mostly Cloudy
3:53 AM 61.0 °F 51.1 °F 70% 30.06 in 10.0 mi NNW 4.6 mph - N/A   Mostly Cloudy
4:53 AM 59.0 °F 51.1 °F 75% 30.06 in 10.0 mi North 3.5 mph - N/A   Clear
5:53 AM 55.9 °F 52.0 °F 87% 30.06 in 10.0 mi NW 3.5 mph - N/A   Clear
6:53 AM 55.9 °F 51.1 °F 84% 30.08 in 10.0 mi NNW 4.6 mph - N/A   Clear
7:53 AM 55.9 °F 50.0 °F 80% 30.08 in 10.0 mi NNW 4.6 mph - N/A   Clear
8:53 AM 60.1 °F 50.0 °F 69% 30.09 in 10.0 mi North 5.8 mph - N/A   Clear
9:53 AM 62.1 °F 50.0 °F 65% 30.09 in 10.0 mi North 8.1 mph - N/A   Clear
10:53 AM 66.0 °F 53.1 °F 63% 30.09 in 10.0 mi North 8.1 mph - N/A   Clear
11:53 AM 71.1 °F 53.1 °F 53% 30.07 in 10.0 mi NW 9.2 mph - N/A   Clear
12:53 PM 73.9 °F 52.0 °F 46% 30.05 in 10.0 mi NW 12.7 mph 18.4 mph N/A   Clear
1:53 PM 75.9 °F 50.0 °F 40% 30.01 in 10.0 mi NNW 9.2 mph - N/A   Clear
2:53 PM 77.0 °F 48.0 °F 36% 29.99 in 10.0 mi NW 11.5 mph - N/A   Clear
3:53 PM 78.1 °F 48.0 °F 35% 29.98 in 10.0 mi North 10.4 mph 18.4 mph N/A   Clear
4:53 PM 78.1 °F 50.0 °F 37% 29.98 in 10.0 mi North 11.5 mph 17.3 mph N/A   Clear
5:53 PM 77.0 °F 51.1 °F 40% 29.97 in 10.0 mi North 4.6 mph - N/A   Clear
6:53 PM 73.9 °F 53.1 °F 48% 29.97 in 10.0 mi Calm Calm - N/A   Clear
7:53 PM 66.0 °F 55.0 °F 68% 29.98 in 10.0 mi Calm Calm - N/A   Clear
8:53 PM 64.0 °F 57.0 °F 78% 29.99 in 10.0 mi Calm Calm - N/A   Overcast
9:53 PM 66.0 °F 59.0 °F 78% 30.00 in 10.0 mi Calm Calm - N/A   Overcast
10:53 PM 66.9 °F 57.9 °F 73% 30.01 in 10.0 mi Calm Calm - N/A   Overcast
11:53 PM 64.9 °F 60.1 °F 84% 29.99 in 10.0 mi Calm Calm - N/A   Overcast